New Roads False River Regiona, LA

12:28 AM CDT on October 24, 2019 (GMT -0500)
False River

Weather History for KHZR - August, 2019

Change the Weather History Date:

Monday, August 12, 2019

  Actual Average (WUND) Record (WUND)
Temperature  
Mean Temperature 86 °F -  
Max Temperature 95 °F - - (-1)
Min Temperature 77 °F - - (-1)
Cooling Degree Days 21    
Growing Degree Days 36 (Base 50)    
Moisture  
Dew Point 77 °F    
Average Humidity 78    
Maximum Humidity 100    
Minimum Humidity 52    
Precipitation  
Precipitation 0.00 in - - ()
Sea Level Pressure  
Sea Level Pressure 29.95 in    
Wind  
Wind Speed 3 mph (WSW)    
Max Wind Speed 7 mph    
Max Gust Speed -    
Visibility 10 miles    
Events      
Averages and records for this station are not official NWS values.
T = Trace of Precipitation, MM = Missing Value Source: NWS Daily Summary

Daily Weather History Graph

Daily Weather History Graph

Search for Another Location

Airport or City:

Astronomy

Aug. 12, 2019 Rise Set
Actual Time 6:30 AM CDT 7:51 PM CDT
Civil Twilight 6:04 AM CDT 8:16 PM CDT
Nautical Twilight 5:34 AM CDT 8:47 PM CDT
Astronomical Twilight 5:02 AM CDT 9:18 PM CDT
Moon 6:12 PM CDT (8/12) 3:49 AM CDT (8/12)
Length of Visible Light 14h 11m
Length of Day
13h 20m
Waxing Gibbous, 93% of the Moon is Illuminated
Aug 12
Waxing Gibbous
Aug 15
Full
Aug 23
Last Quarter
Aug 30
New
Sep 5
First Quarter

Hourly Weather History & Observations

Time (CDT) Temp. Heat Index Dew Point Humidity Pressure Visibility Wind Dir Wind Speed Gust Speed Precip Events Conditions
12:16 AM 80.6 °F 88.1 °F 78.8 °F 94% 29.96 in 10.0 mi SSE 4.6 mph - N/A   Clear
12:36 AM 80.6 °F 88.1 °F 78.8 °F 94% 29.95 in 10.0 mi South 4.6 mph - N/A   Clear
12:55 AM 80.6 °F 88.1 °F 78.8 °F 94% 29.94 in 10.0 mi South 3.5 mph - N/A   Clear
1:15 AM 80.6 °F 88.1 °F 78.8 °F 94% 29.94 in 10.0 mi Calm Calm - N/A   Clear
1:35 AM 80.6 °F 88.1 °F 78.8 °F 94% 29.94 in 10.0 mi SSW 3.5 mph - N/A   Clear
2:16 AM 80.6 °F 87.1 °F 77.0 °F 89% 29.93 in 10.0 mi South 3.5 mph - N/A   Clear
2:37 AM 78.8 °F - 77.0 °F 94% 29.93 in 10.0 mi SSW 3.5 mph - N/A   Clear
3:17 AM 78.8 °F - 77.0 °F 94% 29.93 in 10.0 mi Calm Calm - N/A   Clear
3:37 AM 78.8 °F - 77.0 °F 94% 29.94 in 10.0 mi Calm Calm - N/A   Clear
3:55 AM 77.0 °F - 77.0 °F 100% 29.94 in 10.0 mi Calm Calm - N/A   Clear
4:15 AM 77.0 °F - 77.0 °F 100% 29.94 in 10.0 mi Calm Calm - N/A   Clear
4:37 AM 77.0 °F - 77.0 °F 100% 29.95 in 10.0 mi Calm Calm - N/A   Clear
4:56 AM 77.0 °F - 77.0 °F 100% 29.95 in 10.0 mi Calm Calm - N/A   Clear
5:16 AM 77.0 °F - 77.0 °F 100% 29.95 in 10.0 mi Calm Calm - N/A   Clear
5:58 AM 77.0 °F - 77.0 °F 100% 29.96 in 10.0 mi Calm Calm - N/A   Clear
6:38 AM 77.0 °F - 75.2 °F 94% 29.97 in 7.0 mi Calm Calm - N/A   Clear
6:56 AM 77.0 °F - 77.0 °F 100% 29.97 in 7.0 mi Calm Calm - N/A   Clear
7:16 AM 78.8 °F - 77.0 °F 94% 29.98 in 7.0 mi Calm Calm - N/A   Clear
7:35 AM 78.8 °F - 78.8 °F 100% 29.98 in 5.0 mi Calm Calm - N/A   Clear
7:55 AM 80.6 °F 88.1 °F 78.8 °F 94% 29.99 in 5.0 mi Calm Calm - N/A   Clear
8:15 AM 80.6 °F 88.1 °F 78.8 °F 94% 29.99 in 10.0 mi Calm Calm - N/A   Clear
8:35 AM 82.4 °F 92.4 °F 78.8 °F 89% 30.00 in 10.0 mi West 4.6 mph - N/A   Clear
8:56 AM 84.2 °F 96.1 °F 78.8 °F 84% 30.00 in 10.0 mi West 6.9 mph - N/A   Clear
9:15 AM 84.2 °F 96.1 °F 78.8 °F 84% 30.00 in 10.0 mi WNW 4.6 mph - N/A   Scattered Clouds
9:37 AM 84.2 °F 96.1 °F 78.8 °F 84% 30.00 in 10.0 mi WNW 6.9 mph - N/A   Scattered Clouds
9:55 AM 84.2 °F 96.1 °F 78.8 °F 84% 30.00 in 10.0 mi West 4.6 mph - N/A   Mostly Cloudy
10:36 AM 87.8 °F 99.7 °F 77.0 °F 70% 30.01 in 10.0 mi WNW 4.6 mph - N/A   Scattered Clouds
10:55 AM 89.6 °F 102.2 °F 77.0 °F 66% 30.00 in 10.0 mi West 6.9 mph - N/A   Scattered Clouds
11:16 AM 89.6 °F 102.2 °F 77.0 °F 66% 30.00 in 10.0 mi Calm Calm - N/A   Scattered Clouds
11:38 AM 89.6 °F 104.7 °F 78.8 °F 70% 30.00 in 10.0 mi NW 4.6 mph - N/A   Scattered Clouds
11:58 AM 89.6 °F 99.8 °F 75.2 °F 62% 30.00 in 10.0 mi WSW 5.8 mph - N/A   Clear
12:18 PM 89.6 °F 99.8 °F 75.2 °F 62% 29.99 in 10.0 mi Calm Calm - N/A   Scattered Clouds
12:35 PM 89.6 °F 99.8 °F 75.2 °F 62% 29.99 in 10.0 mi WNW 4.6 mph - N/A   Mostly Cloudy
12:56 PM 89.6 °F 102.2 °F 77.0 °F 66% 29.98 in 10.0 mi WSW 6.9 mph - N/A   Scattered Clouds
1:17 PM 91.4 °F 105.1 °F 77.0 °F 63% 29.98 in 10.0 mi West 3.5 mph - N/A   Scattered Clouds
1:37 PM 91.4 °F 102.5 °F 75.2 °F 59% 29.97 in 10.0 mi West 3.5 mph - N/A   Scattered Clouds
1:55 PM 91.4 °F 102.5 °F 75.2 °F 59% 29.97 in 10.0 mi NW 4.6 mph - N/A   Scattered Clouds
2:16 PM 93.2 °F 105.0 °F 75.2 °F 56% 29.96 in 10.0 mi Calm Calm - N/A   Scattered Clouds
2:35 PM 93.2 °F 105.0 °F 75.2 °F 56% 29.95 in 10.0 mi WSW 5.8 mph - N/A   Scattered Clouds
2:57 PM 93.2 °F 105.0 °F 75.2 °F 56% 29.94 in 10.0 mi West 4.6 mph - N/A   Scattered Clouds
3:16 PM 93.2 °F 105.0 °F 75.2 °F 56% 29.93 in 10.0 mi WNW 3.5 mph - N/A   Scattered Clouds
3:36 PM 93.2 °F 105.0 °F 75.2 °F 56% 29.92 in 10.0 mi West 4.6 mph - N/A   Clear
3:55 PM 93.2 °F 105.0 °F 75.2 °F 56% 29.91 in 10.0 mi Calm Calm - N/A   Clear
4:16 PM 93.2 °F 105.0 °F 75.2 °F 56% 29.91 in 10.0 mi SW 4.6 mph - N/A   Scattered Clouds
4:35 PM 93.2 °F 102.4 °F 73.4 °F 52% 29.90 in 10.0 mi SSW 5.8 mph - N/A   Scattered Clouds
4:55 PM 95.0 °F 107.4 °F 75.2 °F 53% 29.90 in 10.0 mi SW 5.8 mph - N/A   Clear
5:16 PM 93.2 °F 102.4 °F 73.4 °F 52% 29.89 in 10.0 mi SW 3.5 mph - N/A   Clear
5:36 PM 93.2 °F 105.0 °F 75.2 °F 56% 29.89 in 10.0 mi WSW 4.6 mph - N/A   Clear
5:56 PM 93.2 °F 105.0 °F 75.2 °F 56% 29.89 in 10.0 mi WSW 4.6 mph - N/A   Clear
6:17 PM 93.2 °F 105.0 °F 75.2 °F 56% 29.89 in 10.0 mi WSW 3.5 mph - N/A   Clear
6:36 PM 91.4 °F 102.5 °F 75.2 °F 59% 29.89 in 10.0 mi SW 3.5 mph - N/A   Scattered Clouds
7:16 PM 89.6 °F 102.2 °F 77.0 °F 66% 29.89 in 10.0 mi SSW 3.5 mph - N/A   Clear
8:16 PM 86.0 °F 99.3 °F 78.8 °F 79% 29.89 in 10.0 mi Calm Calm - N/A   Clear
8:36 PM 84.2 °F 96.1 °F 78.8 °F 84% 29.89 in 10.0 mi Calm Calm - N/A   Clear
8:56 PM 82.4 °F 92.4 °F 78.8 °F 89% 29.90 in 10.0 mi Calm Calm - N/A   Clear
10:56 PM 82.4 °F 90.9 °F 77.0 °F 84% 29.92 in 10.0 mi SSW 3.5 mph - N/A   Clear
11:16 PM 82.4 °F 90.9 °F 77.0 °F 84% 29.92 in 10.0 mi SSW 3.5 mph - N/A   Clear
11:36 PM 82.4 °F 90.9 °F 77.0 °F 84% 29.92 in 10.0 mi SSW 3.5 mph - N/A   Clear
11:57 PM 80.6 °F 88.1 °F 78.8 °F 94% 29.91 in 10.0 mi WSW 3.5 mph - N/A   Clear